Location: Sungai Laei
(2.6000°N, 113.7167°E)
Time: 10:45:42
(UTC+00:00)

Cosmos 2251 Rocket - Pass Details

Date: 22 May 2022
Orbit: 764 x 791 km, 74.0° (Epoch: 06 July)

Event Time Altitude Azimuth Distance (km) Brightness Sun altitude
Rises 21:10:00 0° 336° (NNW) 3,238 6.7 -15.8°
Reaches altitude 10° 21:12:26 10° 330° (NNW) 2,318 5.9 -15.3°
Maximum altitude 21:17:27 45° 258° (WSW) 1,047 3.8 -14.1°
Drops below altitude 10° 21:22:32 10° 186° (S) 2,342 5.7 -12.9°
Sets 21:25:01 0° 180° (S) 3,275 6.6 -12.3°
